ULTP

导读

ULTP是美国于2020年2月15日08:00发射的一颗试验卫星,依托美国航天技术体系完成部署,进入预定轨道执行相关任务。该卫星承载了空间技术验证或特定航天实验目标,是美国航天发射活动中推进技术探索与空间应用研究的组成部分,助力美国持续拓展航天领域的技术积累与空间利用能力,后续在轨道开展既定实验任务,为后续同类航天项目积累实践数据。

基本信息
目录编号:
45605
目录名称:
ULTP
国际标识:
2020-011D
轨道中心:
EARTH
卫星名称:
ULTP
卫星全名:
--
卫星状态:
已陨落 最后检测时间 2024-04-09
发射日期:
2020-02-15 UTC
国别 :
美国 (US)
星等 :
--
轨道信息
数据来源 国际轨道数据
星历时间: 2024-04-01T19:45:02+0800
轨道信息已过期833天
半长轴: 6524.272km
偏心率: 0.0002221
轨道倾角: 51.609°
近地点辐角 304.021°
升交点赤经 89.443°
平近点角 56.061°
近地点: 144.687km
远地点: 147.587km
周期: 87.409分钟
每日圈数: 16.474213
详细信息
使用方式:
暂无